This is the latest recevied weather packets stored in our database for station/object N3MFL. If no packets are shown the sender has not sent any weather packets the latest 10 day(s).
| Time | Temp. | Humidity | Pressure | Rain* | Wind** | Luminosity | Snow |
|---|---|---|---|---|---|---|---|
| 1778101289 | 13.89° C | 91% | 1009 hPa | 0 mm | - | 32 W/m² | - |
| 1778100986 | 14.44° C | 90% | 1009.1 hPa | 0 mm | - | 49 W/m² | - |
| 1778100686 | 14.44° C | 90% | 1008.8 hPa | 0 mm | - | 32 W/m² | - |
| 1778100384 | 14.44° C | 90% | 1009.3 hPa | 0 mm | - | 29 W/m² | - |
| 1778100081 | 14.44° C | 90% | 1009.1 hPa | 0 mm | - | 30 W/m² | - |
| 1778099779 | 14.44° C | 90% | 1009 hPa | 0 mm | - | 40 W/m² | - |
| 1778099475 | 14.44° C | 90% | 1009.2 hPa | 0 mm | - | 31 W/m² | - |
| 1778099174 | 14.44° C | 90% | 1009.3 hPa | 0 mm | - | 31 W/m² | - |
| 1778098869 | 14.44° C | 90% | 1009.3 hPa | 0 mm | - | 42 W/m² | - |
| 1778098567 | 14.44° C | 90% | 1009.3 hPa | 0 mm | - | 28 W/m² | - |
| 1778098263 | 14.44° C | 90% | 1009.3 hPa | 0 mm | - | 29 W/m² | - |
| 1778097960 | 15° C | 90% | 1009.4 hPa | 0 mm | - | 49 W/m² | - |
| 1778097657 | 15° C | 90% | 1009.5 hPa | 0 mm | - | 57 W/m² | - |
| 1778097353 | 15° C | 90% | 1009.3 hPa | 1.78 mm | - | 79 W/m² | - |
| 1778097050 | 15° C | 89% | 1009.4 hPa | 1.78 mm | - | 104 W/m² | - |
| 1778096748 | 15° C | 88% | 1009.6 hPa | 0 mm | - | 76 W/m² | - |
| 1778096443 | 15.56° C | 87% | 1009.7 hPa | 0 mm | - | 40 W/m² | - |
| 1778096141 | 15.56° C | 86% | 1009.6 hPa | 0 mm | - | 59 W/m² | - |
| 1778095838 | 16.11° C | 84% | 1009.8 hPa | 0 mm | - | 65 W/m² | - |
| 1778095535 | 16.67° C | 81% | 1009.6 hPa | 0 mm | - | 61 W/m² | - |
| 1778095231 | 16.67° C | 79% | 1009.7 hPa | 0 mm | - | 69 W/m² | - |
| 1778094928 | 17.22° C | 77% | 1009.7 hPa | 0 mm | - | 74 W/m² | - |
| 1778094624 | 17.22° C | 76% | 1009.7 hPa | 0 mm | - | 74 W/m² | - |
| 1778094321 | 17.22° C | 76% | 1009.5 hPa | 0 mm | - | 98 W/m² | - |
| 1778094018 | 17.22° C | 76% | 1009.7 hPa | 0 mm | - | 82 W/m² | - |
* Rain latest hour (hover to see other rain measurements)
** Current wind speed in m/s (hover to see current wind gust speed)